Date String (YYYY-MM-DD hh:mm:ss) UTC,Instrument flags,Ambient pressure (hPa),Sample flow (lpm),Bypass flow (lpm),Sample temperature (°C),Ambient temperature (°C),ASC tube jacket temperature (°C),LED temperature (°C),Box temperature (°C),Sample RH (%),Span deviation,Mass concentration (μg/m³),Mass concentration (μg/m³),Mass concentration (μg/m³)
DateTimeUTC,F1_M11,P_M11,Q1_M11,Q2_M11,T1_M11,T2_M11,T3_M11,T4_M11,T5_M11,U1_M11,ZSPAN_M11,X0_M11,X2_M11,X1_M11
2023-01-22 16:00:00,,0819.9,5.00,0.00,22.4,21.2,00.0,31.2,24.1,08.6,0000.0,0001.79,0001.07,0000.74
2023-01-22 16:01:00,,0819.9,5.00,0.00,22.4,21.1,00.0,31.2,24.0,08.6,0000.0,0001.84,0001.08,0000.73
2023-01-22 16:02:00,,0819.9,4.99,0.00,22.4,21.0,00.0,31.2,23.9,08.6,0000.0,0001.73,0001.05,0000.71
2023-01-22 16:03:00,,0819.9,5.00,0.00,22.3,20.9,00.0,31.2,23.9,08.6,0000.0,0001.73,0001.06,0000.70
2023-01-22 16:04:00,,0819.9,5.02,0.00,22.3,20.9,00.0,31.2,23.9,08.6,0000.0,0001.73,0001.07,0000.71
2023-01-22 16:05:00,,0819.9,5.01,0.00,22.3,20.9,00.0,31.2,23.9,08.7,0000.0,0001.78,0001.07,0000.73
2023-01-22 16:06:00,,0819.9,5.01,0.00,22.3,20.9,00.0,31.2,23.9,08.7,0000.0,0002.01,0001.13,0000.74
2023-01-22 16:07:00,,0819.9,5.01,0.00,22.3,20.9,00.0,31.2,23.9,08.7,0000.0,0001.99,0001.12,0000.74
2023-01-22 16:08:00,,0819.9,4.99,0.00,22.3,20.9,00.0,31.2,23.9,08.7,0000.0,0001.90,0001.09,0000.74
2023-01-22 16:09:00,,0820.0,5.02,0.00,22.3,20.9,00.0,31.2,23.9,08.7,0000.0,0001.80,0001.05,0000.74
2023-01-22 16:10:00,,0820.0,4.98,0.00,22.3,20.9,00.0,31.1,23.9,08.7,0000.0,0001.83,0001.06,0000.73
2023-01-22 16:11:00,,0819.9,5.01,0.00,22.3,20.9,00.0,31.1,23.9,08.7,0000.0,0001.91,0001.07,0000.74
2023-01-22 16:12:00,,0820.0,5.02,0.00,22.3,21.7,00.0,31.1,24.1,08.7,0000.0,0001.85,0001.06,0000.76
2023-01-22 16:13:00,,0820.0,4.99,0.00,22.4,23.1,00.0,31.1,24.4,08.7,0000.0,0001.89,0001.08,0000.78
2023-01-22 16:14:00,,0820.0,5.00,0.00,22.6,23.4,00.0,31.2,24.6,08.7,0000.0,0001.93,0001.11,0000.80
2023-01-22 16:15:00,,0820.0,4.98,0.00,22.6,23.0,00.0,31.2,24.6,08.7,0000.0,0001.92,0001.11,0000.81
2023-01-22 16:16:00,,0820.0,5.01,0.00,22.6,22.5,00.0,31.3,24.6,08.7,0000.0,0001.95,0001.13,0000.81
2023-01-22 16:17:00,,0820.0,5.00,0.00,22.6,22.2,00.0,31.3,24.5,08.6,0000.0,0001.75,0001.07,0000.80
2023-01-22 16:18:00,,0820.0,5.01,0.00,22.6,22.0,00.0,31.3,24.5,08.6,0000.0,0001.81,0001.09,0000.81
2023-01-22 16:19:00,,0819.9,5.00,0.00,22.6,21.8,00.0,31.3,24.4,08.6,0000.0,0001.95,0001.13,0000.81
2023-01-22 16:20:00,,0819.9,5.02,0.00,22.6,21.7,00.0,31.3,24.4,08.5,0000.0,0002.02,0001.15,0000.81
2023-01-22 16:21:00,,0820.0,4.99,0.00,22.6,21.6,00.0,31.3,24.4,08.6,0000.0,0001.96,0001.11,0000.81
2023-01-22 16:22:00,,0820.0,4.99,0.00,22.6,21.5,00.0,31.4,24.3,08.7,0000.0,0001.80,0001.08,0000.80
2023-01-22 16:23:00,,0820.0,4.99,0.00,22.6,21.4,00.0,31.4,24.2,08.7,0000.0,0001.78,0001.07,0000.79
2023-01-22 16:24:00,,0820.0,5.01,0.00,22.6,21.2,00.0,31.3,24.2,08.7,0000.0,0001.82,0001.06,0000.78
2023-01-22 16:25:00,,0819.9,4.96,0.00,22.5,21.2,00.0,31.3,24.1,08.7,0000.0,0001.83,0001.06,0000.78
2023-01-22 16:26:00,,0820.0,5.00,0.00,22.5,21.1,00.0,31.3,24.1,08.7,0000.0,0001.75,0001.03,0000.78
2023-01-22 16:27:00,,0819.9,4.98,0.00,22.5,21.1,00.0,31.3,24.1,08.8,0000.0,0001.74,0001.03,0000.77
2023-01-22 16:28:00,,0819.9,5.01,0.00,22.5,21.0,00.0,31.3,24.1,08.8,0000.0,0001.68,0001.00,0000.75
2023-01-22 16:29:00,,0819.9,5.00,0.00,22.4,20.9,00.0,31.3,24.1,08.9,0000.0,0001.67,0001.01,0000.75
2023-01-22 16:30:00,,0819.9,5.02,0.00,22.4,20.9,00.0,31.3,24.0,08.9,0000.0,0001.63,0000.98,0000.74
2023-01-22 16:31:00,,0819.9,5.00,0.00,22.4,20.9,00.0,31.3,24.0,08.9,0000.0,0001.54,0000.94,0000.73
2023-01-22 16:32:00,,0819.9,5.01,0.00,22.4,20.8,00.0,31.3,24.0,09.0,0000.0,0001.44,0000.90,0000.72
2023-01-22 16:33:00,,0819.9,5.00,0.00,22.3,20.7,00.0,31.2,23.9,09.0,0000.0,0001.50,0000.93,0000.73
2023-01-22 16:34:00,,0819.9,5.01,0.00,22.3,20.7,00.0,31.2,23.9,09.1,0000.0,0001.55,0000.96,0000.73
2023-01-22 16:35:00,,0819.9,5.01,0.00,22.3,20.7,00.0,31.2,23.9,09.2,0000.0,0001.69,0001.01,0000.73
2023-01-22 16:36:00,,0819.9,5.00,0.00,22.3,20.7,00.0,31.2,23.9,09.3,0000.0,0001.74,0001.04,0000.73
2023-01-22 16:37:00,,0819.9,5.00,0.00,22.3,20.8,00.0,31.2,23.9,09.3,0000.0,0001.75,0001.03,0000.71
2023-01-22 16:38:00,,0819.9,4.99,0.00,22.3,20.9,00.0,31.2,23.9,09.4,0000.0,0001.80,0001.04,0000.70
2023-01-22 16:39:00,,0819.9,5.01,0.00,22.3,21.0,00.0,31.2,24.0,09.4,0000.0,0001.98,0001.06,0000.70
2023-01-22 16:40:00,,0819.9,4.99,0.00,22.3,21.0,00.0,31.2,24.0,09.4,0000.0,0002.00,0001.06,0000.69
2023-01-22 16:41:00,,0819.9,4.98,0.00,22.3,21.0,00.0,31.2,24.0,09.4,0000.0,0001.92,0001.04,0000.68
2023-01-22 16:42:00,,0819.9,4.99,0.00,22.3,21.0,00.0,31.1,24.0,09.5,0000.0,0002.02,0001.07,0000.68
2023-01-22 16:43:00,,0819.9,5.00,0.00,22.3,20.9,00.0,31.1,23.9,09.4,0000.0,0002.12,0001.11,0000.68
2023-01-22 16:44:00,,0819.9,5.01,0.00,22.2,20.8,00.0,31.1,24.0,09.4,0000.0,0002.06,0001.08,0000.68
2023-01-22 16:45:00,,0819.9,4.99,0.00,22.2,20.9,00.0,31.1,24.0,09.5,0000.0,0002.10,0001.09,0000.68
2023-01-22 16:46:00,,0819.9,5.00,0.00,22.3,21.0,00.0,31.1,24.0,09.6,0000.0,0001.98,0001.05,0000.68
2023-01-22 16:47:00,,0819.9,4.99,0.00,22.3,21.0,00.0,31.1,24.0,09.6,0000.0,0001.90,0001.03,0000.69
2023-01-22 16:48:00,,0819.9,5.01,0.00,22.3,20.9,00.0,31.1,24.0,09.6,0000.0,0001.90,0001.04,0000.70
2023-01-22 16:49:00,,0819.9,5.00,0.00,22.2,20.8,00.0,31.1,23.9,09.5,0000.0,0001.89,0001.05,0000.71
2023-01-22 16:50:00,,0819.9,4.99,0.00,22.2,20.9,00.0,31.1,24.0,09.6,0000.0,0001.76,0001.03,0000.71
2023-01-22 16:51:00,,0820.0,5.02,0.00,22.2,20.9,00.0,31.1,24.0,09.6,0000.0,0001.64,0001.01,0000.71
2023-01-22 16:52:00,,0819.9,4.98,0.00,22.2,20.9,00.0,31.1,23.9,09.6,0000.0,0001.65,0001.02,0000.72
2023-01-22 16:53:00,,0820.0,4.96,0.00,22.2,20.9,00.0,31.0,23.9,09.7,0000.0,0002.20,0001.02,0000.73
2023-01-22 16:54:00,,0820.0,5.01,0.00,22.2,20.8,00.0,31.0,23.9,09.6,0000.0,0002.61,0001.01,0000.74
2023-01-22 16:55:00,,0819.9,5.00,0.00,22.2,20.8,00.0,31.0,23.9,09.7,0000.0,0002.72,0001.02,0000.74
2023-01-22 16:56:00,,0820.0,5.00,0.00,22.2,20.8,00.0,31.0,23.9,09.9,0000.0,0002.75,0001.02,0000.75
2023-01-22 16:57:00,,0820.0,5.02,0.00,22.2,20.8,00.0,31.0,23.9,09.8,0000.0,0002.91,0001.03,0000.76
2023-01-22 16:58:00,,0820.0,4.96,0.00,22.2,20.8,00.0,31.0,23.9,09.7,0000.0,0002.94,0001.03,0000.78
2023-01-22 16:59:00,,0820.0,5.01,0.00,22.2,20.8,00.0,31.0,23.9,09.7,0000.0,0002.94,0001.04,0000.79
